カタログに戻る

STARLINK-34297

運用中通信VLEO
NORAD 64261·PAYLOAD·🇺🇸 United States

打ち上げ Jun 4, 2025 から Vandenberg Space Force Base

Loading…

次のパス (今後24時間)

TLE

最新Source: CelesTrak SupGP

元期: Sep 14, 2026, 23:00 UTC

1 64261C 25120F   26257.95881944  .00044062  00000+0  13021-2 0  2570
2 64261  53.1589 311.9574 0001212  87.1394 251.0154 15.34361684    10

AllMySatでSTARLINK-34297をリアルタイム追跡

Download on the App Store